Wetterdaten: Montag, 22.11.2010
Datum Zeit Temp. A. Feuchte A. Luftdruck Regen Wind Richtung Richtung Sonnenschein UV Solar Windben
22.11.2010 00:00 2,0 C 88 % 1007,1 hPa 0,0 mm 3,2 km/h (1 Bft) O-NO 67 0 min 0 UV-I 0 W/m 9,7 km/h (2 Bft)
22.11.2010 00:10 2,1 C 88 % 1007,2 hPa 0,0 mm 3,2 km/h (1 Bft) O-NO 67 0 min 0 UV-I 0 W/m 11,3 km/h (2 Bft)
22.11.2010 00:20 2,2 C 88 % 1007,2 hPa 0,0 mm 3,2 km/h (1 Bft) O-NO 67 0 min 0 UV-I 0 W/m 14,5 km/h (3 Bft)
22.11.2010 00:30 2,3 C 89 % 1007,2 hPa 0,0 mm 3,2 km/h (1 Bft) O-NO 67 0 min 0 UV-I 0 W/m 14,5 km/h (3 Bft)
22.11.2010 00:40 2,6 C 89 % 1007,3 hPa 0,0 mm 4,8 km/h (1 Bft) O 90 0 min 0 UV-I 0 W/m 14,5 km/h (3 Bft)
22.11.2010 00:50 2,8 C 89 % 1007,1 hPa 0,0 mm 3,2 km/h (1 Bft) O-NO 67 0 min 0 UV-I 0 W/m 11,3 km/h (2 Bft)
22.11.2010 01:00 2,9 C 89 % 1007,2 hPa 0,0 mm 4,8 km/h (1 Bft) O-NO 67 0 min 0 UV-I 0 W/m 12,9 km/h (3 Bft)
22.11.2010 01:10 3,2 C 89 % 1007,0 hPa 0,0 mm 3,2 km/h (1 Bft) O 90 0 min 0 UV-I 0 W/m 8,0 km/h (2 Bft)
22.11.2010 01:20 3,3 C 89 % 1007,0 hPa 0,0 mm 3,2 km/h (1 Bft) O 90 0 min 0 UV-I 0 W/m 12,9 km/h (3 Bft)
22.11.2010 01:30 3,4 C 88 % 1007,2 hPa 0,0 mm 4,8 km/h (1 Bft) O-NO 67 0 min 0 UV-I 0 W/m 16,1 km/h (3 Bft)
22.11.2010 01:40 3,5 C 88 % 1007,0 hPa 0,0 mm 4,8 km/h (1 Bft) O 90 0 min 0 UV-I 0 W/m 11,3 km/h (2 Bft)
22.11.2010 01:50 3,6 C 88 % 1006,8 hPa 0,0 mm 4,8 km/h (1 Bft) O 90 0 min 0 UV-I 0 W/m 14,5 km/h (3 Bft)
22.11.2010 02:00 3,6 C 87 % 1006,8 hPa 0,0 mm 3,2 km/h (1 Bft) O 90 0 min 0 UV-I 0 W/m 14,5 km/h (3 Bft)
22.11.2010 02:10 3,7 C 87 % 1006,7 hPa 0,0 mm 3,2 km/h (1 Bft) O-NO 67 0 min 0 UV-I 0 W/m 9,7 km/h (2 Bft)
22.11.2010 02:20 3,7 C 87 % 1006,6 hPa 0,0 mm 3,2 km/h (1 Bft) O-NO 67 0 min 0 UV-I 0 W/m 11,3 km/h (2 Bft)
22.11.2010 02:30 3,8 C 86 % 1006,5 hPa 0,0 mm 4,8 km/h (1 Bft) NO 45 0 min 0 UV-I 0 W/m 11,3 km/h (2 Bft)
22.11.2010 02:40 3,8 C 86 % 1006,3 hPa 0,0 mm 1,6 km/h (1 Bft) NO 45 0 min 0 UV-I 0 W/m 9,7 km/h (2 Bft)
22.11.2010 02:50 3,8 C 86 % 1006,1 hPa 0,0 mm 3,2 km/h (1 Bft) O-NO 67 0 min 0 UV-I 0 W/m 9,7 km/h (2 Bft)
22.11.2010 03:00 3,8 C 85 % 1006,1 hPa 0,0 mm 3,2 km/h (1 Bft) NO 45 0 min 0 UV-I 0 W/m 14,5 km/h (3 Bft)
22.11.2010 03:10 3,8 C 85 % 1006,1 hPa 0,0 mm 4,8 km/h (1 Bft) O-NO 67 0 min 0 UV-I 0 W/m 16,1 km/h (3 Bft)
22.11.2010 03:20 3,8 C 85 % 1005,8 hPa 0,0 mm 3,2 km/h (1 Bft) NO 45 0 min 0 UV-I 0 W/m 16,1 km/h (3 Bft)
22.11.2010 03:30 3,8 C 85 % 1005,7 hPa 0,0 mm 3,2 km/h (1 Bft) N-NO 22 0 min 0 UV-I 0 W/m 12,9 km/h (3 Bft)
22.11.2010 03:40 3,8 C 84 % 1005,5 hPa 0,0 mm 4,8 km/h (1 Bft) NO 45 0 min 0 UV-I 0 W/m 19,3 km/h (3 Bft)
22.11.2010 03:50 3,7 C 84 % 1005,4 hPa 0,0 mm 1,6 km/h (1 Bft) O-NO 67 0 min 0 UV-I 0 W/m 8,0 km/h (2 Bft)
22.11.2010 04:00 3,6 C 84 % 1005,4 hPa 0,0 mm 1,6 km/h (1 Bft) N-NO 22 0 min 0 UV-I 0 W/m 9,7 km/h (2 Bft)
22.11.2010 04:10 3,5 C 84 % 1005,5 hPa 0,0 mm 1,6 km/h (1 Bft) O-NO 67 0 min 0 UV-I 0 W/m 11,3 km/h (2 Bft)
22.11.2010 04:20 3,4 C 85 % 1005,4 hPa 0,0 mm 1,6 km/h (1 Bft) NO 45 0 min 0 UV-I 0 W/m 9,7 km/h (2 Bft)
22.11.2010 04:30 3,5 C 85 % 1005,1 hPa 0,0 mm 1,6 km/h (1 Bft) N-NO 22 0 min 0 UV-I 0 W/m 11,3 km/h (2 Bft)
22.11.2010 04:40 3,5 C 85 % 1005,0 hPa 0,0 mm 1,6 km/h (1 Bft) N-NO 22 0 min 0 UV-I 0 W/m 6,4 km/h (2 Bft)
22.11.2010 04:50 3,5 C 85 % 1004,9 hPa 0,0 mm 1,6 km/h (1 Bft) NO 45 0 min 0 UV-I 0 W/m 11,3 km/h (2 Bft)
22.11.2010 05:00 3,5 C 86 % 1004,8 hPa 0,0 mm 3,2 km/h (1 Bft) NO 45 0 min 0 UV-I 0 W/m 9,7 km/h (2 Bft)
22.11.2010 05:10 3,6 C 86 % 1004,8 hPa 0,0 mm 4,8 km/h (1 Bft) N-NO 22 0 min 0 UV-I 0 W/m 16,1 km/h (3 Bft)
22.11.2010 05:20 3,6 C 87 % 1004,8 hPa 0,0 mm 4,8 km/h (1 Bft) N-NO 22 0 min 0 UV-I 0 W/m 17,7 km/h (3 Bft)
22.11.2010 05:30 3,7 C 87 % 1004,8 hPa 0,0 mm 4,8 km/h (1 Bft) N-NO 22 0 min 0 UV-I 0 W/m 17,7 km/h (3 Bft)
22.11.2010 05:40 3,8 C 87 % 1004,8 hPa 0,0 mm 6,4 km/h (2 Bft) N-NO 22 0 min 0 UV-I 0 W/m 19,3 km/h (3 Bft)
22.11.2010 05:50 3,8 C 87 % 1004,8 hPa 0,0 mm 6,4 km/h (2 Bft) O-NO 67 0 min 0 UV-I 0 W/m 20,9 km/h (4 Bft)
22.11.2010 06:00 3,9 C 87 % 1004,8 hPa 0,0 mm 8,0 km/h (2 Bft) N-NO 22 0 min 0 UV-I 0 W/m 19,3 km/h (3 Bft)
22.11.2010 06:10 3,9 C 87 % 1004,9 hPa 0,0 mm 4,8 km/h (1 Bft) O-NO 67 0 min 0 UV-I 0 W/m 22,5 km/h (4 Bft)
22.11.2010 06:20 3,9 C 87 % 1004,8 hPa 0,0 mm 1,6 km/h (1 Bft) O-NO 67 0 min 0 UV-I 0 W/m 9,7 km/h (2 Bft)
22.11.2010 06:30 3,9 C 87 % 1004,6 hPa 0,0 mm 3,2 km/h (1 Bft) N-NO 22 0 min 0 UV-I 0 W/m 9,7 km/h (2 Bft)
22.11.2010 06:40 3,9 C 87 % 1004,5 hPa 0,0 mm 1,6 km/h (1 Bft) O-NO 67 0 min 0 UV-I 0 W/m 12,9 km/h (3 Bft)
22.11.2010 06:50 3,9 C 87 % 1004,6 hPa 0,0 mm 3,2 km/h (1 Bft) N-NO 22 0 min 0 UV-I 0 W/m 12,9 km/h (3 Bft)
22.11.2010 07:00 3,9 C 87 % 1004,5 hPa 0,0 mm 3,2 km/h (1 Bft) N-NO 22 0 min 0 UV-I 0 W/m 14,5 km/h (3 Bft)
22.11.2010 07:10 3,9 C 87 % 1004,2 hPa 0,0 mm 3,2 km/h (1 Bft) N-NO 22 0 min 0 UV-I 0 W/m 16,1 km/h (3 Bft)
22.11.2010 07:20 3,9 C 87 % 1004,2 hPa 0,0 mm 1,6 km/h (1 Bft) N-NO 22 0 min 0 UV-I 0 W/m 9,7 km/h (2 Bft)
22.11.2010 07:30 4,0 C 87 % 1004,2 hPa 0,0 mm 3,2 km/h (1 Bft) N 360 0 min 0 UV-I 0 W/m 11,3 km/h (2 Bft)
22.11.2010 07:40 4,0 C 87 % 1004,1 hPa 0,0 mm 3,2 km/h (1 Bft) N-NO 22 0 min 0 UV-I 0 W/m 16,1 km/h (3 Bft)
22.11.2010 07:50 4,0 C 87 % 1004,1 hPa 0,0 mm 3,2 km/h (1 Bft) N-NO 22 0 min 0 UV-I 0 W/m 11,3 km/h (2 Bft)
22.11.2010 08:00 4,0 C 86 % 1004,1 hPa 0,0 mm 3,2 km/h (1 Bft) N-NO 24 0 min 0 UV-I 0 W/m 16,1 km/h (3 Bft)
22.11.2010 08:10 4,0 C 86 % 1003,9 hPa 0,0 mm 3,2 km/h (1 Bft) N-NO 22 0 min 0 UV-I 0 W/m 16,1 km/h (3 Bft)
22.11.2010 08:20 4,0 C 86 % 1003,8 hPa 0,0 mm 3,2 km/h (1 Bft) NO 45 0 min 0 UV-I 7 W/m 11,3 km/h (2 Bft)
22.11.2010 08:30 3,9 C 87 % 1003,8 hPa 0,0 mm 3,2 km/h (1 Bft) NO 45 0 min 0 UV-I 11 W/m 17,7 km/h (3 Bft)
22.11.2010 08:40 3,9 C 87 % 1003,7 hPa 0,0 mm 3,2 km/h (1 Bft) N-NO 22 0 min 0 UV-I 14 W/m 14,5 km/h (3 Bft)
22.11.2010 08:50 3,9 C 87 % 1003,6 hPa 0,0 mm 4,8 km/h (1 Bft) N-NO 22 0 min 0 UV-I 14 W/m 16,1 km/h (3 Bft)
22.11.2010 09:00 3,9 C 87 % 1003,4 hPa 0,0 mm 3,2 km/h (1 Bft) N-NO 22 0 min 0 UV-I 23 W/m 12,9 km/h (3 Bft)
22.11.2010 09:10 3,9 C 87 % 1003,4 hPa 0,0 mm 6,4 km/h (2 Bft) N-NO 22 0 min 0 UV-I 32 W/m 16,1 km/h (3 Bft)
22.11.2010 09:20 3,9 C 87 % 1003,4 hPa 0,0 mm 4,8 km/h (1 Bft) N 360 0 min 0 UV-I 30 W/m 16,1 km/h (3 Bft)
22.11.2010 09:30 3,9 C 87 % 1003,1 hPa 0,0 mm 4,8 km/h (1 Bft) N-NO 22 0 min 0 UV-I 21 W/m 16,1 km/h (3 Bft)
22.11.2010 09:40 3,9 C 87 % 1003,3 hPa 0,0 mm 4,8 km/h (1 Bft) N-NO 22 0 min 0 UV-I 25 W/m 16,1 km/h (3 Bft)
22.11.2010 09:50 3,9 C 86 % 1003,2 hPa 0,0 mm 6,4 km/h (2 Bft) N-NO 22 0 min 0 UV-I 32 W/m 19,3 km/h (3 Bft)
22.11.2010 10:00 3,9 C 86 % 1003,2 hPa 0,0 mm 6,4 km/h (2 Bft) N 360 0 min 0 UV-I 32 W/m 16,1 km/h (3 Bft)
22.11.2010 10:10 3,9 C 86 % 1003,0 hPa 0,0 mm 6,4 km/h (2 Bft) N-NO 22 0 min 0 UV-I 37 W/m 22,5 km/h (4 Bft)
22.11.2010 10:20 3,9 C 86 % 1003,1 hPa 0,0 mm 6,4 km/h (2 Bft) N-NO 22 0 min 0 UV-I 37 W/m 16,1 km/h (3 Bft)
22.11.2010 10:30 4,0 C 86 % 1003,2 hPa 0,0 mm 4,8 km/h (1 Bft) N-NO 22 0 min 0 UV-I 46 W/m 17,7 km/h (3 Bft)
22.11.2010 10:40 4,1 C 85 % 1003,0 hPa 0,0 mm 4,8 km/h (1 Bft) N-NO 22 0 min 0 UV-I 62 W/m 14,5 km/h (3 Bft)
22.11.2010 10:50 4,1 C 85 % 1002,9 hPa 0,0 mm 4,8 km/h (1 Bft) N 360 0 min 0 UV-I 63 W/m 14,5 km/h (3 Bft)
22.11.2010 11:00 4,1 C 85 % 1002,7 hPa 0,0 mm 4,8 km/h (1 Bft) N 360 0 min 0 UV-I 67 W/m 20,9 km/h (4 Bft)
22.11.2010 11:10 4,2 C 85 % 1002,7 hPa 0,0 mm 4,8 km/h (1 Bft) N-NO 22 0 min 0 UV-I 70 W/m 16,1 km/h (3 Bft)
22.11.2010 11:20 4,2 C 85 % 1002,6 hPa 0,0 mm 4,8 km/h (1 Bft) N-NO 22 0 min 0 UV-I 76 W/m 16,1 km/h (3 Bft)
22.11.2010 11:30 4,3 C 84 % 1002,6 hPa 0,0 mm 4,8 km/h (1 Bft) N-NO 22 0 min 0 UV-I 76 W/m 14,5 km/h (3 Bft)
22.11.2010 11:40 4,4 C 84 % 1002,4 hPa 0,0 mm 3,2 km/h (1 Bft) N-NO 22 0 min 0 UV-I 69 W/m 12,9 km/h (3 Bft)
22.11.2010 11:50 4,4 C 84 % 1002,4 hPa 0,0 mm 1,6 km/h (1 Bft) N 360 0 min 0 UV-I 65 W/m 14,5 km/h (3 Bft)
22.11.2010 12:00 4,6 C 83 % 1002,3 hPa 0,0 mm 3,2 km/h (1 Bft) N 360 0 min 0 UV-I 67 W/m 16,1 km/h (3 Bft)
22.11.2010 12:10 4,6 C 83 % 1002,2 hPa 0,0 mm 4,8 km/h (1 Bft) N-NO 22 0 min 0 UV-I 53 W/m 16,1 km/h (3 Bft)
22.11.2010 12:20 4,6 C 83 % 1002,1 hPa 0,0 mm 4,8 km/h (1 Bft) N 360 0 min 0 UV-I 51 W/m 16,1 km/h (3 Bft)
22.11.2010 12:30 4,7 C 83 % 1002,0 hPa 0,0 mm 3,2 km/h (1 Bft) N-NO 22 0 min 0 UV-I 58 W/m 11,3 km/h (2 Bft)
22.11.2010 12:40 4,7 C 82 % 1001,9 hPa 0,0 mm 4,8 km/h (1 Bft) N-NO 22 0 min 0 UV-I 53 W/m 14,5 km/h (3 Bft)
22.11.2010 12:50 4,7 C 82 % 1001,7 hPa 0,0 mm 3,2 km/h (1 Bft) N 360 0 min 0 UV-I 42 W/m 11,3 km/h (2 Bft)
22.11.2010 13:00 4,7 C 82 % 1001,6 hPa 0,0 mm 3,2 km/h (1 Bft) N 360 0 min 0 UV-I 37 W/m 9,7 km/h (2 Bft)
22.11.2010 13:10 4,8 C 82 % 1001,4 hPa 0,0 mm 4,8 km/h (1 Bft) N 360 0 min 0 UV-I 28 W/m 11,3 km/h (2 Bft)
22.11.2010 13:20 4,8 C 82 % 1001,2 hPa 0,0 mm 1,6 km/h (1 Bft) N-NO 22 0 min 0 UV-I 21 W/m 9,7 km/h (2 Bft)
22.11.2010 13:30 4,8 C 82 % 1001,0 hPa 0,0 mm 3,2 km/h (1 Bft) N-NO 22 0 min 0 UV-I 18 W/m 16,1 km/h (3 Bft)
22.11.2010 13:40 4,8 C 82 % 1001,0 hPa 0,0 mm 3,2 km/h (1 Bft) N-NO 22 0 min 0 UV-I 19 W/m 16,1 km/h (3 Bft)
22.11.2010 13:50 4,8 C 82 % 1001,0 hPa 0,0 mm 1,6 km/h (1 Bft) N 360 0 min 0 UV-I 18 W/m 11,3 km/h (2 Bft)
22.11.2010 14:00 4,8 C 83 % 1000,9 hPa 0,0 mm 3,2 km/h (1 Bft) N 360 0 min 0 UV-I 18 W/m 16,1 km/h (3 Bft)
22.11.2010 14:10 4,8 C 83 % 1000,9 hPa 0,0 mm 1,6 km/h (1 Bft) N-NO 22 0 min 0 UV-I 18 W/m 11,3 km/h (2 Bft)
22.11.2010 14:20 4,8 C 83 % 1000,9 hPa 0,0 mm 3,2 km/h (1 Bft) N-NO 22 0 min 0 UV-I 16 W/m 16,1 km/h (3 Bft)
22.11.2010 14:30 4,8 C 84 % 1000,8 hPa 0,0 mm 3,2 km/h (1 Bft) N-NO 22 0 min 0 UV-I 14 W/m 14,5 km/h (3 Bft)
22.11.2010 14:40 4,8 C 84 % 1000,8 hPa 0,0 mm 3,2 km/h (1 Bft) N-NO 22 0 min 0 UV-I 9 W/m 16,1 km/h (3 Bft)
22.11.2010 14:50 4,9 C 84 % 1000,8 hPa 0,0 mm 3,2 km/h (1 Bft) N-NO 22 0 min 0 UV-I 9 W/m 16,1 km/h (3 Bft)
22.11.2010 15:00 4,9 C 84 % 1000,7 hPa 0,0 mm 1,6 km/h (1 Bft) N-NO 22 0 min 0 UV-I 9 W/m 11,3 km/h (2 Bft)
22.11.2010 15:10 4,9 C 85 % 1000,8 hPa 0,0 mm 3,2 km/h (1 Bft) N 360 0 min 0 UV-I 7 W/m 17,7 km/h (3 Bft)
22.11.2010 15:20 4,9 C 85 % 1000,8 hPa 0,0 mm 3,2 km/h (1 Bft) N-NO 22 0 min 0 UV-I 7 W/m 14,5 km/h (3 Bft)
22.11.2010 15:30 4,9 C 85 % 1000,7 hPa 0,0 mm 1,6 km/h (1 Bft) N-NO 22 0 min 0 UV-I 5 W/m 9,7 km/h (2 Bft)
22.11.2010 15:40 4,9 C 85 % 1000,8 hPa 0,0 mm 1,6 km/h (1 Bft) N 360 0 min 0 UV-I 0 W/m 9,7 km/h (2 Bft)
22.11.2010 15:50 4,9 C 86 % 1000,8 hPa 0,0 mm 1,6 km/h (1 Bft) NO 45 0 min 0 UV-I 0 W/m 11,3 km/h (2 Bft)
22.11.2010 16:00 4,9 C 86 % 1000,8 hPa 0,0 mm 2,1 km/h (1 Bft) N-NW 333 0 min 0 UV-I 0 W/m 8,0 km/h (2 Bft)
22.11.2010 16:10 4,9 C 87 % 1000,7 hPa 0,0 mm 1,6 km/h (1 Bft) N 360 0 min 0 UV-I 0 W/m 11,3 km/h (2 Bft)
22.11.2010 16:20 4,9 C 87 % 1000,7 hPa 0,0 mm 1,6 km/h (1 Bft) N 360 0 min 0 UV-I 0 W/m 9,7 km/h (2 Bft)
22.11.2010 16:30 4,9 C 87 % 1000,7 hPa 0,0 mm 1,6 km/h (1 Bft) NW 315 0 min 0 UV-I 0 W/m 16,1 km/h (3 Bft)
22.11.2010 16:40 4,9 C 87 % 1000,6 hPa 0,0 mm 1,6 km/h (1 Bft) N-NO 22 0 min 0 UV-I 0 W/m 9,7 km/h (2 Bft)
22.11.2010 16:50 4,9 C 88 % 1000,5 hPa 0,0 mm 1,6 km/h (1 Bft) N-NO 22 0 min 0 UV-I 0 W/m 9,7 km/h (2 Bft)
22.11.2010 17:00 4,9 C 88 % 1000,5 hPa 0,0 mm 3,2 km/h (1 Bft) N-NO 22 0 min 0 UV-I 0 W/m 16,1 km/h (3 Bft)
22.11.2010 17:10 4,9 C 88 % 1000,4 hPa 0,0 mm 1,6 km/h (1 Bft) N 360 0 min 0 UV-I 0 W/m 16,1 km/h (3 Bft)
22.11.2010 17:20 4,9 C 88 % 1000,2 hPa 0,0 mm 3,2 km/h (1 Bft) N 360 0 min 0 UV-I 0 W/m 16,1 km/h (3 Bft)
22.11.2010 17:30 5,0 C 88 % 1000,4 hPa 0,0 mm 3,2 km/h (1 Bft) NW 315 0 min 0 UV-I 0 W/m 11,3 km/h (2 Bft)
22.11.2010 17:40 5,1 C 87 % 1000,4 hPa 0,0 mm 1,6 km/h (1 Bft) N 360 0 min 0 UV-I 0 W/m 8,0 km/h (2 Bft)
22.11.2010 17:50 5,1 C 87 % 1000,3 hPa 0,0 mm 3,2 km/h (1 Bft) N 360 0 min 0 UV-I 0 W/m 17,7 km/h (3 Bft)
22.11.2010 18:00 5,1 C 87 % 1000,3 hPa 0,0 mm 3,2 km/h (1 Bft) N 360 0 min 0 UV-I 0 W/m 16,1 km/h (3 Bft)
22.11.2010 18:10 5,1 C 87 % 1000,3 hPa 0,0 mm 3,2 km/h (1 Bft) N 360 0 min 0 UV-I 0 W/m 9,7 km/h (2 Bft)
22.11.2010 18:20 5,1 C 87 % 1000,3 hPa 0,0 mm 4,8 km/h (1 Bft) N 360 0 min 0 UV-I 0 W/m 17,7 km/h (3 Bft)
22.11.2010 18:30 5,1 C 86 % 1000,4 hPa 0,0 mm 4,8 km/h (1 Bft) N-NO 22 0 min 0 UV-I 0 W/m 20,9 km/h (4 Bft)
22.11.2010 18:40 5,1 C 86 % 1000,4 hPa 0,0 mm 3,2 km/h (1 Bft) NO 45 0 min 0 UV-I 0 W/m 17,7 km/h (3 Bft)
22.11.2010 18:50 5,1 C 85 % 1000,6 hPa 0,0 mm 4,8 km/h (1 Bft) N-NO 22 0 min 0 UV-I 0 W/m 11,3 km/h (2 Bft)
22.11.2010 19:00 5,1 C 85 % 1000,6 hPa 0,0 mm 4,8 km/h (1 Bft) N-NO 22 0 min 0 UV-I 0 W/m 14,5 km/h (3 Bft)
22.11.2010 19:10 5,1 C 85 % 1000,6 hPa 0,0 mm 4,8 km/h (1 Bft) N 360 0 min 0 UV-I 0 W/m 20,9 km/h (4 Bft)
22.11.2010 19:20 5,1 C 85 % 1000,6 hPa 0,0 mm 3,2 km/h (1 Bft) N-NO 22 0 min 0 UV-I 0 W/m 17,7 km/h (3 Bft)
22.11.2010 19:30 5,1 C 85 % 1000,6 hPa 0,0 mm 4,8 km/h (1 Bft) N 360 0 min 0 UV-I 0 W/m 17,7 km/h (3 Bft)
22.11.2010 19:40 5,0 C 85 % 1000,6 hPa 0,0 mm 3,2 km/h (1 Bft) N 360 0 min 0 UV-I 0 W/m 11,3 km/h (2 Bft)
22.11.2010 19:50 4,9 C 86 % 1000,6 hPa 0,0 mm 1,6 km/h (1 Bft) N 360 0 min 0 UV-I 0 W/m 16,1 km/h (3 Bft)
22.11.2010 20:00 4,8 C 86 % 1000,7 hPa 0,0 mm 1,6 km/h (1 Bft) N 360 0 min 0 UV-I 0 W/m 14,5 km/h (3 Bft)
22.11.2010 20:10 4,8 C 86 % 1000,7 hPa 0,0 mm 4,8 km/h (1 Bft) N 360 0 min 0 UV-I 0 W/m 17,7 km/h (3 Bft)
22.11.2010 20:20 4,7 C 86 % 1000,7 hPa 0,0 mm 3,2 km/h (1 Bft) N 360 0 min 0 UV-I 0 W/m 11,3 km/h (2 Bft)
22.11.2010 20:30 4,7 C 86 % 1000,6 hPa 0,0 mm 3,2 km/h (1 Bft) N 360 0 min 0 UV-I 0 W/m 14,5 km/h (3 Bft)
22.11.2010 20:40 4,6 C 86 % 1000,7 hPa 0,0 mm 3,2 km/h (1 Bft) N 360 0 min 0 UV-I 0 W/m 16,1 km/h (3 Bft)
22.11.2010 20:50 4,6 C 86 % 1000,8 hPa 0,0 mm 3,2 km/h (1 Bft) N 360 0 min 0 UV-I 0 W/m 24,1 km/h (4 Bft)
22.11.2010 21:00 4,6 C 86 % 1000,8 hPa 0,0 mm 4,8 km/h (1 Bft) N 360 0 min 0 UV-I 0 W/m 22,5 km/h (4 Bft)
22.11.2010 21:10 4,6 C 86 % 1000,8 hPa 0,0 mm 4,8 km/h (1 Bft) N 360 0 min 0 UV-I 0 W/m 16,1 km/h (3 Bft)
22.11.2010 21:20 4,5 C 86 % 1000,9 hPa 0,0 mm 8,0 km/h (2 Bft) N-NO 22 0 min 0 UV-I 0 W/m 22,5 km/h (4 Bft)
22.11.2010 21:30 4,5 C 85 % 1000,9 hPa 0,0 mm 4,8 km/h (1 Bft) N-NO 22 0 min 0 UV-I 0 W/m 17,7 km/h (3 Bft)
22.11.2010 21:40 4,5 C 85 % 1000,9 hPa 0,0 mm 4,8 km/h (1 Bft) N-NO 22 0 min 0 UV-I 0 W/m 16,1 km/h (3 Bft)
22.11.2010 21:50 4,5 C 86 % 1000,9 hPa 0,0 mm 3,2 km/h (1 Bft) N 360 0 min 0 UV-I 0 W/m 9,7 km/h (2 Bft)
22.11.2010 22:00 4,4 C 86 % 1000,9 hPa 0,0 mm 1,6 km/h (1 Bft) N-NW 337 0 min 0 UV-I 0 W/m 6,4 km/h (2 Bft)
22.11.2010 22:10 4,3 C 86 % 1000,8 hPa 0,0 mm 1,6 km/h (1 Bft) N-NO 22 0 min 0 UV-I 0 W/m 9,7 km/h (2 Bft)
22.11.2010 22:20 4,3 C 86 % 1000,9 hPa 0,0 mm 1,6 km/h (1 Bft) N-NO 22 0 min 0 UV-I 0 W/m 8,0 km/h (2 Bft)
22.11.2010 22:30 4,2 C 87 % 1000,9 hPa 0,0 mm 1,6 km/h (1 Bft) N-NW 337 0 min 0 UV-I 0 W/m 12,9 km/h (3 Bft)
22.11.2010 22:40 4,1 C 87 % 1001,0 hPa 0,3 mm 3,2 km/h (1 Bft) NW 315 0 min 0 UV-I 0 W/m 14,5 km/h (3 Bft)
22.11.2010 22:50 4,0 C 87 % 1000,9 hPa 0,0 mm 1,6 km/h (1 Bft) N 360 0 min 0 UV-I 0 W/m 17,7 km/h (3 Bft)
22.11.2010 23:00 4,0 C 87 % 1000,9 hPa 0,0 mm 3,2 km/h (1 Bft) N-NO 22 0 min 0 UV-I 0 W/m 9,7 km/h (2 Bft)
22.11.2010 23:10 3,9 C 88 % 1000,9 hPa 0,0 mm 1,6 km/h (1 Bft) N-NW 337 0 min 0 UV-I 0 W/m 11,3 km/h (2 Bft)
22.11.2010 23:20 3,9 C 88 % 1000,9 hPa 0,0 mm 1,6 km/h (1 Bft) N 360 0 min 0 UV-I 0 W/m 11,3 km/h (2 Bft)
22.11.2010 23:30 3,9 C 88 % 1000,9 hPa 0,0 mm 1,6 km/h (1 Bft) N-NO 22 0 min 0 UV-I 0 W/m 9,7 km/h (2 Bft)
22.11.2010 23:40 3,9 C 88 % 1000,9 hPa 0,0 mm 1,6 km/h (1 Bft) NW 315 0 min 0 UV-I 0 W/m 12,9 km/h (3 Bft)
22.11.2010 23:50 3,9 C 88 % 1000,9 hPa 0,0 mm 1,6 km/h (1 Bft) W-NW 292 0 min 0 UV-I 0 W/m 14,5 km/h (3 Bft)
_ Min-Zeit 00:00 12:40 17:20 - 02:40 - - - - - 04:40
Minimum _ 2,0 C 82 % 1000,2 hPa - 1,6 km/h (1 Bft) - - - - - 6,4 km/h (2 Bft)
_ Max-Zeit 17:30 00:30 00:40 22:40 06:00 - - 00:00 00:00 11:20 20:50
Maximum _ 5,1 C 89 % 1007,3 hPa 0,3 mm 8,0 km/h
N-NO (2 Bft)
- - 0 min 0 UV-I 76 W/m 24,1 km/h
N-NO (4 Bft)
Durchschnitt _ 4,2 C 86 % 1002,9 hPa #0,3 mm 3,4 km/h (1 Bft) N-NO - #0 min. 0 UV-I 34 W/m 14,1 km/h (3 Bft)